Weather History for Tuscaloosa, AL

Change the Weather History Date:

Thursday, January 17, 2013

  Actual Average Record
Temperature  
Mean Temperature 39 °F 44 °F  
Max Temperature 44 °F 55 °F 75 °F (1952)
Min Temperature 33 °F 34 °F 5 °F (1982)
Degree Days  
Heating Degree Days 26 21  
Month to date heating degree days 271 352  
Since 1 July heating degree days 1179 1353  
Moisture  
Dew Point 35 °F    
Average Humidity 85    
Maximum Humidity 100    
Minimum Humidity 70    
Precipitation  
Precipitation 0.14 in 0.16 in 1.35 in (2006)
Month to date precipitation 3.53 2.73  
Year to date precipitation 3.53 2.73  
Sea Level Pressure  
Sea Level Pressure 30.10 in    
Wind  
Wind Speed 9 mph (NW)    
Max Wind Speed 20 mph    
Max Gust Speed 26 mph    
Visibility 4 miles    
Events Fog , Rain , Snow    
T = Trace of Precipitation, MM = Missing Value Source: NWS Daily Summary

Daily Weather History Graph

Daily Weather History Graph

Search for Another Location

Airport:

Trip Planner

Search our weather history database for the weather conditions in past years. The results will help you decide how hot, cold, wet, or windy it might be!

Date:

Astronomy

Jan. 17, 2013 Rise Set
Actual Time 6:53 AM CST 5:08 PM CST
Civil Twilight 6:26 AM CST 5:35 PM CST
Nautical Twilight 5:56 AM CST 6:05 PM CST
Astronomical Twilight 5:26 AM CST 6:35 PM CST
Moon 10:22 AM CST (1/17) 11:35 PM CST (1/17)
Length of Visible Light 11h 08m
Length of Day
10h 14m
Waxing Crescent, 38% of the Moon is Illuminated
Jan 17
Waxing Crescent
Jan 18
First Quarter
Jan 26
Full
Feb 3
Last Quarter
Feb 10
New

Hourly Weather History & Observations

Time (CST) Temp. Windchill Dew Point Humidity Pressure Visibility Wind Dir Wind Speed Gust Speed Precip Events Conditions
12:19 AM 41.0 °F 38.0 °F 39.2 °F 93% 30.03 in 2.5 mi NNW 4.6 mph - N/A   Overcast
12:26 AM 41.0 °F 37.1 °F 39.2 °F 93% 30.02 in 2.0 mi NNW 5.8 mph - N/A   Overcast
12:41 AM 41.0 °F 39.0 °F 39.2 °F 93% 30.02 in 1.8 mi NW 3.5 mph - 0.00 in Rain Light Rain
12:53 AM 41.0 °F 38.0 °F 39.0 °F 93% 30.02 in 1.8 mi NW 4.6 mph - 0.00 in   Overcast
1:32 AM 41.0 °F 39.0 °F 39.2 °F 93% 30.01 in 2.0 mi NNW 3.5 mph - 0.00 in Rain Light Rain
1:53 AM 41.0 °F 39.0 °F 39.0 °F 93% 30.00 in 2.0 mi NW 3.5 mph - 0.00 in Rain Light Rain
2:00 AM 41.0 °F 39.0 °F 39.2 °F 93% 30.00 in 1.8 mi WNW 3.5 mph - 0.00 in Rain Light Rain
2:15 AM 41.0 °F 39.0 °F 39.2 °F 93% 30.00 in 2.0 mi NW 3.5 mph - 0.00 in Rain Light Rain
2:53 AM 41.0 °F 38.0 °F 39.9 °F 96% 29.99 in 2.0 mi West 4.6 mph - 0.00 in   Overcast
3:53 AM 41.0 °F 35.2 °F 39.0 °F 93% 29.99 in 3.0 mi NW 9.2 mph - 0.01 in Rain Light Rain
4:05 AM 41.0 °F 35.8 °F 39.2 °F 93% 29.98 in 2.5 mi NW 8.1 mph - 0.02 in Rain Light Rain
4:18 AM 39.2 °F 35.0 °F 39.2 °F 100% 29.97 in 3.0 mi NW 5.8 mph - 0.02 in Rain Light Rain
4:41 AM 39.2 °F 33.0 °F 37.4 °F 93% 29.98 in 4.0 mi NW 9.2 mph - 0.02 in   Overcast
4:53 AM 39.9 °F 35.1 °F 37.9 °F 93% 29.99 in 3.0 mi NW 6.9 mph - 0.02 in Rain Light Rain
6:33 AM 39.2 °F 33.6 °F 39.2 °F 100% 29.98 in 2.5 mi WNW 8.1 mph - 0.00 in Rain Light Rain
6:53 AM 39.9 °F 33.4 °F 39.0 °F 97% 29.99 in 2.0 mi NW 10.4 mph - 0.01 in Rain Light Rain
7:22 AM 37.4 °F 28.5 °F 35.6 °F 93% 30.02 in 1.5 mi WNW 15.0 mph 26.5 mph 0.02 in Rain Light Rain
7:40 AM 35.6 °F 26.2 °F 33.8 °F 93% 30.03 in 2.0 mi NW 15.0 mph 21.9 mph 0.02 in   Overcast
7:53 AM 36.0 °F 26.7 °F 33.1 °F 89% 30.02 in 3.0 mi NNW 15.0 mph 20.7 mph 0.02 in   Overcast
8:32 AM 35.6 °F 27.1 °F 33.8 °F 93% 30.02 in 8.0 mi NW 12.7 mph - N/A   Overcast
8:49 AM 37.4 °F 29.3 °F 32.0 °F 81% 30.03 in 10.0 mi NNW 12.7 mph 19.6 mph N/A   Overcast
8:53 AM 37.0 °F 29.3 °F 32.0 °F 82% 30.03 in 10.0 mi NNW 11.5 mph 19.6 mph N/A   Overcast
9:19 AM 35.6 °F 27.5 °F 32.0 °F 87% 30.06 in 10.0 mi WNW 11.5 mph 20.7 mph N/A   Overcast
9:49 AM 35.6 °F 26.2 °F 32.0 °F 87% 30.07 in 7.0 mi NW 15.0 mph 20.7 mph 0.00 in   Overcast
9:53 AM 35.1 °F 26.9 °F 32.0 °F 89% 30.08 in 6.0 mi NW 11.5 mph 20.7 mph 0.00 in   Overcast
10:08 AM 33.8 °F 24.3 °F 32.0 °F 93% 30.08 in 1.8 mi WNW 13.8 mph 20.7 mph 0.00 in Snow Light Snow
10:14 AM 33.8 °F 24.3 °F 32.0 °F 93% 30.07 in 0.8 mi WNW 13.8 mph 20.7 mph 0.00 in Snow Light Snow
10:28 AM 33.8 °F 24.8 °F 32.0 °F 93% 30.07 in 0.5 mi NW 12.7 mph 18.4 mph 0.00 in Fog , Snow Snow
10:44 AM 33.8 °F 23.9 °F 30.2 °F 87% 30.08 in 0.8 mi NW 15.0 mph 24.2 mph 0.01 in Snow Light Snow
10:53 AM 34.0 °F 24.2 °F 32.0 °F 92% 30.08 in 1.0 mi NW 15.0 mph 26.5 mph 0.02 in Snow Light Snow
10:57 AM 33.8 °F 23.2 °F 32.0 °F 93% 30.08 in 1.2 mi WNW 17.3 mph 26.5 mph 0.00 in Snow Light Snow
11:11 AM 33.8 °F 23.5 °F 32.0 °F 93% 30.08 in 1.2 mi NW 16.1 mph 23.0 mph 0.00 in Snow Light Snow
11:23 AM 35.6 °F 26.2 °F 32.0 °F 87% 30.08 in 2.5 mi NW 15.0 mph 24.2 mph 0.00 in Snow Light Snow
11:32 AM 33.8 °F 24.8 °F 32.0 °F 93% 30.09 in 1.2 mi NW 12.7 mph 23.0 mph 0.00 in Snow Light Snow
11:36 AM 33.8 °F 24.8 °F 32.0 °F 93% 30.09 in 1.2 mi NW 12.7 mph 23.0 mph 0.00 in Snow Light Snow
11:46 AM 33.8 °F 23.9 °F 32.0 °F 93% 30.09 in 0.2 mi WNW 15.0 mph 21.9 mph 0.01 in Fog , Snow Heavy Snow
11:51 AM 33.8 °F 23.9 °F 32.0 °F 93% 30.09 in 0.2 mi WNW 15.0 mph 20.7 mph 0.01 in Fog , Snow Heavy Snow
11:53 AM 33.1 °F 23.0 °F 32.0 °F 96% 30.10 in 0.2 mi WNW 15.0 mph - 0.01 in Fog , Snow Heavy Snow
12:11 PM 33.8 °F 24.8 °F 32.0 °F 93% 30.09 in 0.5 mi WNW 12.7 mph - 0.02 in Fog , Snow Snow
12:43 PM 33.8 °F 26.4 °F 33.8 °F 100% 30.09 in 2.0 mi WNW 9.2 mph 18.4 mph 0.05 in Snow Light Snow
12:53 PM 34.0 °F 26.0 °F 33.1 °F 96% 30.09 in 6.0 mi WNW 10.4 mph 20.7 mph 0.05 in Snow Light Snow
1:53 PM 37.0 °F 28.1 °F 34.0 °F 89% 30.13 in 9.0 mi WNW 15.0 mph 23.0 mph 0.00 in Rain Light Rain
2:09 PM 37.4 °F 28.9 °F 33.8 °F 87% 30.13 in 9.0 mi WNW 13.8 mph 19.6 mph N/A   Overcast
2:17 PM 37.4 °F 31.4 °F 35.6 °F 93% 30.13 in 9.0 mi NW 8.1 mph - N/A   Overcast
2:53 PM 41.0 °F 33.5 °F 35.1 °F 79% 30.17 in 10.0 mi WNW 13.8 mph 25.3 mph N/A   Overcast
3:53 PM 44.1 °F 37.7 °F 36.0 °F 73% 30.20 in 10.0 mi NW 12.7 mph 18.4 mph N/A   Clear
4:53 PM 43.0 °F 37.7 °F 35.1 °F 74% 30.25 in 10.0 mi WNW 9.2 mph - N/A   Clear
5:53 PM 42.1 °F 37.1 °F 35.1 °F 76% 30.29 in 10.0 mi NW 8.1 mph - N/A   Clear
6:53 PM 41.0 °F 39.0 °F 35.1 °F 79% 30.32 in 10.0 mi NW 3.5 mph - N/A   Clear
7:53 PM 37.9 °F - 33.1 °F 83% 30.35 in 10.0 mi Calm Calm - N/A   Clear
8:53 PM 41.0 °F 35.2 °F 35.1 °F 79% 30.37 in 10.0 mi NNW 9.2 mph - N/A   Clear
9:53 PM 41.0 °F 38.0 °F 34.0 °F 76% 30.38 in 10.0 mi NNW 4.6 mph - N/A   Clear
10:53 PM 39.9 °F 35.1 °F 34.0 °F 79% 30.40 in 10.0 mi North 6.9 mph - N/A   Clear
11:53 PM 39.0 °F 32.8 °F 34.0 °F 82% 30.40 in 10.0 mi NNW 9.2 mph - N/A   Clear